Regional Weather Roundup
Issued by NWS Huntsville, AL

Home | Current Version | Previous Version | Text Only | Print | Product List | Glossary On
Versions: 1 2 3 4 5 6 7 8 9 10 11 12 13 14 15 16 17 18 19 20 21 22 23 24 25 26 27 28 29 30 31 32 33 34 35 36 37 38 39 40 41 42 43 44 45 46 47 48 49 50
000
ASUS44 KHUN 230210
RWRHUN

WEATHER ROUNDUP FOR THE TENNESSEE VALLEY
NATIONAL WEATHER SERVICE HUNTSVILLE AL
900 PM CDT TUE JUL 22 2014

ALZ001>004-230300-
NORTHWEST ALABAMA

CITY           SKY/WX    TMP DP  RH WIND       PRES   REMARKS
SHOALS AIRPORT FAIR      77  73  87 CALM      30.09R
SHOALS TVA RES   N/A     75 N/A N/A MISG        N/A
$$

ALZ005>007-016-230300-
NORTH CENTRAL ALABAMA

CITY           SKY/WX    TMP DP  RH WIND       PRES   REMARKS
DECATUR AP     FAIR      77  74  90 CALM      30.09R
HUNTSVILLE AP  MOCLDY    81  74  79 CALM      30.08R
HUN NWS/UAH      N/A     79  71  75 E3          N/A
MERIDIANVILLE  LGT RAIN  77  70  78 SE3       30.09S
VINEMONT AP      N/A     78  73  85 CALM      30.13R
$$

ALZ008>010-230300-
NORTHEAST ALABAMA

CITY           SKY/WX    TMP DP  RH WIND       PRES   REMARKS
ALBERTVILLE    FAIR      77  77 100 CALM      30.11R
FORT PAYNE     FAIR      70  66  88 CALM      30.12R
SCOTTSBORO AP  MOCLDY    75  73  94 N3        30.11R
SCOTTSBORO HCN   N/A     75 N/A N/A MISG        N/A
VALLEY HEAD      N/A     70 N/A N/A MISG        N/A
$$

TNZ076-096-097-230300-
SOUTHEASTERN MIDDLE TENNESSEE

CITY           SKY/WX    TMP DP  RH WIND       PRES   REMARKS
FAYETTEVILLE   PTCLDY    73  72  94 E8        30.11R
TULLAHOMA      MOCLDY    75  70  83 CALM      30.13R
WINCHESTER     CLEAR     73  72  94 SE5       30.12R
$$

...SURROUNDING SITES...

CITY           SKY/WX    TMP DP  RH WIND       PRES   REMARKS
ATLANTA        FAIR      78  70  76 CALM      30.12R
ANNISTON       MOCLDY    76  72  87 CALM      30.11R
BIRMINGHAM     FAIR      80  70  71 CALM      30.10R
CHATTANOOGA    MOCLDY    77  71  82 SE3       30.11R
CORINTH        FAIR      79  72  78 S5        30.06R
DALTON         MOCLDY    72  72 100 CALM      30.12R
GADSDEN        FAIR      75  72  88 CALM      30.09R
GOLDEN TRNGL   FAIR      79  72  78 CALM      30.06R
HALEYVILLE     FAIR      75  74  97 CALM      30.12R
JACKSON TN     FAIR      78  73  84 CALM      30.05R
LEWISBURG      FAIR      77  72  84 CALM      30.09R
MEMPHIS        FAIR      83  68  60 N5        30.05R
MURFREESBORO   FAIR      82  71  69 CALM      30.07R
NASHVILLE      FAIR      81  72  74 SW3       30.07R
ROME           FAIR      74  72  93 CALM      30.11R
SAVANNAH       FAIR      78  78 100 SE3       30.08R
TUPELO         FAIR      79  75  87 CALM      30.05R
TUSCALOOSA     FAIR      80  74  81 CALM      30.05R
$$

...GULF COAST WEATHER...

CITY           SKY/WX    TMP DP  RH WIND       PRES   REMARKS
GULFPORT       MOCLDY    78  69  73 N8        30.03S
PASCAGOULA     FAIR      75  72  90 N6        30.04R
MOBILE         FAIR      75  71  87 NE5       30.06R
GULF SHORES    FAIR      76  74  92 CALM      30.04R
PENSACOLA      FAIR      77  75  93 CALM      30.04R
DESTIN         FAIR      81  76  84 E3        30.05R
PANAMA CITY    FAIR      77  74  90 E1        30.07R
APPALACHICOLA  FAIR      77  71  82 W3        30.05S
$$



USA.gov is the U.S. government's official web portal to all federal, state and local government web resources and services.